CZ-4 DEB, 26140

Orbit data source: Space-Track

CZ-4 DEB, 26140 is space debris in SSO originally from a launch on Thu, 14 Oct 1999 UTC launched from the Taiyaun Space Center, China (TSC). Debris objects in space refer to the collection of defunct objects orbiting the Earth. Examples of debris include non-operational satellites, rocket bodies, and fragments generated from explosions, collisions, or faulty payload assembly.

Loading next visibility...
Identifier
26140, 1999-057AC
Orbit
SSO
Country
Flag of CNCN / PRC
Related business
Manufacturer
Unknown
Mission
Spacecraft
Bus & Motor
Unknown
Mass
Unknown
Launch date (UTC)
1999-10-14 (26 years ago)
Launch vehicle
Unknown
Launch site
Taiyaun Space Center, China (TSC)
Object type
Payload
Rocket body
Debris
Shape & HBR
Unknown shape, 0.1 m
Radar Cross Section
Small (<0.1 m²)

Expand to show TLE details & history
Last TLE update: 12 hours ago

TLE from 12 hours ago
0 CZ-4 DEB
1 26140U 99057AC  26093.72752523  .00011420  00000-0  18777-2 0  9996
2 26140  99.3415  22.2730 0135586 149.5584 270.6802 14.64812918363120
Epoch: 2026-04-03T17:27Z
TLE epoch observation values (Epoch: 2026-04-03T17:27:38.179Z)
Latitude
57.55915°
Longitude
-86.60997°
Altitude
687.475 km
Speed
7.518 km/s
True Right ascension
00h 29m 25s
True Declination
57° 24' 06"
Sunlit
Object was in daylight at epoch
Visualization orbit readout
Latitude
Unknown
Longitude
Unknown
Altitude
Unknown
Speed
Unknown
Apparent Right ascension
Unknown
Apparent Declination
Unknown
Sunlit
N/A
Visualization observer readout
Local Sidereal Time
11:27:22
Azimuth
Unknown
Elevation
Unknown
Doppler factor
Unknown
Orbital elements
Apogee altitude
770.434 km
Perigee altitude
579.178 km
Semi-major axis
7,052.943 km
Eccentricity
0.01356
Inclination
99.3415°
RAAN
22.273°
Arg. of periapsis
149.5584°
True anomaly
269.12649°
Mean anomaly
270.6802°
Eccentric anomaly
269.90335°
Mean motion
3.66427 °/min
Orbital period
98.25 mins
BSTAR
0.0018777
Loading maneuver chart data...
Computing Atmospheric mass density...
Loading historical data...
Loading historical data...
Loading historical data...
Loading historical data...
Loading historical data...
Loading historical data...
Loading historical data...

Documentation

Showing up to 5 results
|